GSAT-17

Last updated on Thu Nov 21 2024 00:02:30 GMT+0000 (Coordinated Universal Time)

1 42815U 17040B 24325.54661370 -.00000257 00000+0 00000+0 0 9993 2 42815 0.0546 105.0363 0007140 145.0833 100.2209 1.00270562 27030
UTC large
Height (km)
Speed (km/s)
/
Latitude / Longitude
Inclination (degrees)
Orbital Period (minutes)
Azimuth
Elevation
Range (km)
Doppler Factor

Next 0 passes for location: London (51.5072 / 0.1276)

Sorry there are no passes over London.